Total_Precipitation_Accumulation
2.30 2.48 2.47 2.46 2.53 2.60 2.43 2.17 2.08 2.10 2.17 2.21 2.35 2.40 2.35 2.41 2.54 2.61 2.57 2.89 3.03 3.06 3.05 3.05 3.03 3.18 3.15 3.02 3.13 3.33 3.62 3.72 3.31 2.73 2.59 2.53 2.54 2.42 2.43 2.29 2.16 2.11 1.90
2.19 2.40 2.46 2.44 2.49 2.53 2.38 2.19 2.16 2.20 2.20 2.16 2.25 2.29 2.19 2.21 2.44 2.46 2.51 2.81 2.98 2.87 2.89 2.91 2.67 2.74 2.83 2.69 2.83 2.92 3.08 3.34 3.24 2.88 2.80 2.76 2.72 2.62 2.60 2.54 2.29 2.05 1.79
2.11 2.41 2.58 2.62 2.58 2.50 2.32 2.09 2.00 1.95 1.98 1.99 2.03 2.06 2.12 2.28 2.40 2.40 2.43 2.43 2.46 2.54 2.76 2.87 2.66 2.63 2.55 2.56 2.60 2.59 2.66 2.76 3.02 2.93 2.78 2.83 2.75 2.75 2.68 2.46 2.27 2.16 1.79
2.03 2.24 2.37 2.26 2.19 2.19 2.08 1.89 1.79 1.77 1.79 1.85 1.94 2.04 2.12 2.20 2.27 2.37 2.44 2.34 2.31 2.36 2.49 2.56 2.55 2.51 2.43 2.53 2.45 2.47 2.54 2.71 2.87 2.92 2.81 2.89 2.88 2.84 2.87 2.67 2.66 2.47 2.21
1.67 1.77 1.91 1.89 1.85 1.82 1.87 1.89 1.87 1.90 1.85 1.93 2.01 2.03 2.03 2.02 1.95 2.01 2.11 2.11 2.24 2.18 2.09 2.10 2.13 2.18 2.18 2.22 2.07 2.26 2.53 2.69 2.75 2.78 2.78 2.97 3.10 3.14 2.95 2.88 2.92 2.84 2.59
1.38 1.48 1.72 1.83 1.83 1.82 1.88 2.00 2.01 1.97 1.95 1.99 1.95 1.99 1.99 1.72 1.91 1.96 1.96 2.05 2.12 2.13 2.05 1.93 1.83 1.82 1.77 1.80 1.77 1.87 2.18 2.42 2.57 2.72 2.70 2.80 3.01 3.20 3.32 3.28 3.14 3.01 2.91
1.43 1.58 1.78 1.89 1.96 1.98 1.95 2.07 2.02 2.02 2.09 2.05 1.98 1.98 2.01 2.07 2.12 1.95 1.81 1.78 1.87 1.93 1.90 1.87 1.64 1.55 1.73 1.71 1.77 1.75 1.78 1.95 2.13 2.38 2.48 2.41 2.60 2.91 3.20 3.11 3.26 3.32 3.21
1.69 1.89 2.00 2.13 2.08 2.06 2.07 2.10 2.18 2.27 2.31 2.29 2.22 2.14 2.11 2.09 2.08 1.87 1.87 1.78 1.78 1.78 1.80 1.84 1.82 1.74 1.80 1.93 1.90 1.82 1.71 1.68 1.80 1.87 1.98 2.11 2.35 2.70 3.00 2.96 3.05 3.16 3.17
1.84 1.94 2.10 2.20 2.24 2.25 2.26 2.25 2.35 2.49 2.45 2.37 2.30 2.31 2.25 2.24 2.32 2.11 2.13 1.97 1.95 1.95 1.98 1.98 1.96 1.86 2.01 1.97 1.86 1.84 1.79 1.78 1.87 1.97 1.90 1.99 2.22 2.38 2.59 2.71 2.69 2.77 2.68
1.81 1.92 2.09 2.33 2.39 2.42 2.57 2.68 2.65 2.62 2.49 2.50 2.48 2.43 2.42 2.45 2.69 2.50 2.34 2.15 2.14 2.13 2.23 2.22 2.26 2.09 2.09 2.03 1.86 1.87 1.89 1.91 2.03 1.98 1.94 1.89 1.91 2.14 2.40 2.44 2.64 2.85 2.70
1.84 1.99 2.18 2.35 2.45 2.53 2.73 2.82 2.81 2.75 2.75 2.70 2.62 2.64 2.62 2.60 2.78 2.53 2.33 2.17 2.23 2.37 2.37 2.29 2.34 2.36 2.15 2.15 2.10 2.00 1.99 2.01 1.99 2.00 2.00 1.97 1.98 2.09 2.21 2.34 2.62 2.83 2.82
1.81 1.95 2.09 2.23 2.25 2.34 2.63 2.73 2.85 2.90 2.85 2.77 2.72 2.56 2.56 2.54 2.45 2.31 2.21 2.18 2.28 2.41 2.47 2.42 2.38 2.37 2.14 2.06 1.92 1.89 1.94 1.84 1.75 1.85 1.86 1.88 1.89 1.91 2.01 2.23 2.46 2.55 2.61
1.92 2.05 2.19 2.26 2.30 2.40 2.52 2.57 2.68 2.76 2.72 2.60 2.61 2.55 2.48 2.47 2.45 2.21 2.00 1.97 2.03 2.06 2.21 2.38 2.30 2.19 1.99 1.80 1.75 1.72 1.64 1.52 1.53 1.58 1.56 1.58 1.66 1.75 1.86 2.01 2.23 2.36 2.35
2.02 2.08 2.17 2.28 2.26 2.35 2.48 2.58 2.70 2.78 2.86 2.76 2.63 2.50 2.46 2.43 2.31 2.13 1.94 1.85 1.97 2.07 2.17 2.25 2.13 2.01 1.82 1.66 1.59 1.50 1.46 1.53 1.57 1.53 1.55 1.66 1.75 1.79 1.80 1.83 1.97 2.12 2.14
1.96 2.03 2.07 2.11 2.20 2.31 2.38 2.50 2.47 2.54 2.58 2.55 2.49 2.46 2.42 2.33 2.18 2.09 1.91 1.79 1.91 2.09 2.16 2.17 2.02 1.96 1.84 1.74 1.67 1.61 1.60 1.63 1.60 1.58 1.63 1.62 1.64 1.73 1.73 1.73 1.84 1.86 1.82
2.03 2.06 2.02 1.97 2.04 2.11 2.19 2.22 2.25 2.13 2.12 2.05 2.05 2.05 1.98 1.87 1.75 1.63 1.60 1.62 1.71 1.89 1.88 1.94 2.05 2.02 1.95 1.86 1.76 1.67 1.64 1.62 1.58 1.61 1.67 1.67 1.63 1.63 1.69 1.67 1.74 1.78 1.69
1.96 2.01 2.01 1.98 2.01 2.02 2.11 2.09 2.14 2.08 1.96 1.84 1.77 1.77 1.82 1.79 1.71 1.67 1.69 1.73 1.70 1.76 1.68 1.78 1.92 1.92 1.92 1.87 1.73 1.58 1.54 1.58 1.68 1.67 1.69 1.70 1.73 1.73 1.76 1.74 1.73 1.80 1.74
1.69 1.79 1.92 2.00 2.03 2.06 2.14 2.21 2.28 2.32 2.21 1.98 1.83 1.76 1.69 1.66 1.59 1.62 1.70 1.66 1.57 1.57 1.60 1.75 1.83 1.82 1.79 1.73 1.66 1.59 1.58 1.63 1.73 1.71 1.71 1.75 1.77 1.78 1.78 1.78 1.77 1.76 1.75
1.61 1.64 1.66 1.72 1.84 1.93 1.94 2.00 2.09 2.20 2.24 2.12 1.95 1.88 1.82 1.72 1.59 1.56 1.51 1.36 1.39 1.52 1.67 1.72 1.77 1.76 1.64 1.56 1.54 1.49 1.51 1.60 1.70 1.77 1.75 1.80 1.84 1.88 1.87 1.83 1.85 1.86 1.77
1.67 1.71 1.64 1.57 1.57 1.64 1.72 1.80 1.91 2.05 2.13 2.10 2.03 1.93 1.85 1.73 1.46 1.37 1.30 1.27 1.35 1.41 1.48 1.52 1.54 1.51 1.42 1.44 1.48 1.47 1.45 1.54 1.67 1.72 1.71 1.77 1.84 1.86 1.79 1.76 1.77 1.78 1.65
1.64 1.64 1.64 1.60 1.60 1.65 1.71 1.77 1.80 1.86 1.93 1.88 1.79 1.72 1.65 1.46 1.32 1.24 1.23 1.27 1.35 1.41 1.46 1.49 1.48 1.42 1.41 1.45 1.52 1.55 1.52 1.58 1.67 1.70 1.72 1.77 1.84 1.85 1.76 1.73 1.72 1.72 1.71
1.63 1.56 1.51 1.52 1.60 1.66 1.73 1.81 1.85 1.84 1.79 1.71 1.64 1.53 1.50 1.33 1.26 1.28 1.30 1.32 1.37 1.48 1.51 1.50 1.51 1.47 1.43 1.47 1.55 1.62 1.66 1.65 1.68 1.70 1.68 1.71 1.79 1.83 1.85 1.81 1.80 1.80 1.83
1.74 1.64 1.59 1.59 1.63 1.65 1.67 1.72 1.76 1.74 1.70 1.61 1.51 1.45 1.39 1.35 1.31 1.37 1.44 1.51 1.58 1.57 1.51 1.48 1.48 1.45 1.44 1.46 1.46 1.53 1.63 1.68 1.68 1.68 1.73 1.77 1.76 1.73 1.75 1.70 1.70 1.73 1.75
1.79 1.69 1.60 1.54 1.56 1.60 1.66 1.74 1.73 1.67 1.58 1.54 1.54 1.54 1.50 1.50 1.47 1.47 1.53 1.62 1.57 1.46 1.37 1.35 1.37 1.34 1.37 1.44 1.42 1.41 1.45 1.56 1.59 1.55 1.55 1.60 1.63 1.64 1.70 1.68 1.67 1.67 1.74
1.80 1.77 1.66 1.55 1.54 1.58 1.62 1.69 1.69 1.66 1.59 1.50 1.51 1.53 1.59 1.64 1.57 1.50 1.51 1.49 1.40 1.32 1.23 1.28 1.32 1.30 1.31 1.34 1.35 1.36 1.47 1.50 1.46 1.44 1.43 1.48 1.53 1.61 1.69 1.70 1.71 1.69 1.72
1.63 1.59 1.51 1.42 1.38 1.43 1.50 1.60 1.63 1.66 1.66 1.60 1.59 1.60 1.57 1.54 1.50 1.46 1.43 1.40 1.39 1.30 1.22 1.24 1.28 1.26 1.29 1.28 1.24 1.26 1.28 1.20 1.21 1.30 1.26 1.30 1.46 1.58 1.65 1.73 1.75 1.78 1.77